Manassas, VA

5:41 AM EST on November 25, 2017 (GMT -0500)
Manassas Regional-Davis

Weather History for KHEF - March, 2014

Change the Weather History Date:

Wednesday, March 5, 2014

  Actual Average Record
Temperature  
Mean Temperature 26 °F -  
Max Temperature 42 °F 49 °F 77 °F (2004)
Min Temperature 10 °F 27 °F 10 °F (2014)
Degree Days  
Heating Degree Days 39    
Moisture  
Dew Point 14 °F    
Average Humidity 68    
Maximum Humidity 100    
Minimum Humidity 29    
Precipitation  
Precipitation 0.00 in - - ()
Sea Level Pressure  
Sea Level Pressure 30.28 in    
Wind  
Wind Speed 2 mph (NNE)    
Max Wind Speed 10 mph    
Max Gust Speed 16 mph    
Visibility 10 miles    
Events      
Averages and records for this station are not official NWS values.
T = Trace of Precipitation, MM = Missing Value Source: NWS Daily Summary

Daily Weather History Graph

Daily Weather History Graph

Search for Another Location

Airport or City:

Trip Planner

Search our weather history database for the weather conditions in past years. The results will help you decide how hot, cold, wet, or windy it might be!

Date:

Astronomy

Mar. 05, 2014 Rise Set
Actual Time 6:36 AM EST 6:07 PM EST
Civil Twilight 6:09 AM EST 6:33 PM EST
Nautical Twilight 5:39 AM EST 7:04 PM EST
Astronomical Twilight 5:08 AM EST 7:35 PM EST
Moon 9:04 AM EST (3/5) 11:10 PM EST (3/5)
Length of Visible Light 12h 23m
Length of Day
11h 30m
Waxing Crescent, 23% of the Moon is Illuminated
Mar 5
Waxing Crescent
Mar 8
First Quarter
Mar 16
Full
Mar 23
Last Quarter
Mar 30
New

Hourly Weather History & Observations

Time (EST) Temp. Windchill Dew Point Humidity Pressure Visibility Wind Dir Wind Speed Gust Speed Precip Events Conditions
12:15 AM 14.0 °F - 12.2 °F 93% 30.24 in 10.0 mi Calm Calm - N/A   Clear
12:35 AM 14.0 °F - 12.2 °F 93% 30.24 in 10.0 mi Calm Calm - N/A   Clear
12:55 AM 14.0 °F - 12.2 °F 93% 30.24 in 10.0 mi Calm Calm - N/A   Clear
1:15 AM 14.0 °F - 12.2 °F 93% 30.24 in 10.0 mi Calm Calm - N/A   Clear
1:35 AM 14.0 °F - 12.2 °F 93% 30.23 in 10.0 mi Calm Calm - N/A   Clear
1:55 AM 12.2 °F - 12.2 °F 100% 30.23 in 10.0 mi Calm Calm - N/A   Clear
2:15 AM 12.2 °F - 10.4 °F 92% 30.23 in 10.0 mi Calm Calm - N/A   Clear
2:35 AM 12.2 °F - 10.4 °F 92% 30.22 in 10.0 mi Calm Calm - N/A   Clear
2:55 AM 12.2 °F - 10.4 °F 92% 30.22 in 10.0 mi Calm Calm - N/A   Clear
3:15 AM 12.2 °F - 10.4 °F 92% 30.21 in 10.0 mi Calm Calm - N/A   Clear
3:35 AM 12.2 °F - 10.4 °F 92% 30.22 in 10.0 mi Calm Calm - N/A   Clear
3:55 AM 12.2 °F - 10.4 °F 92% 30.22 in 10.0 mi Calm Calm - N/A   Clear
4:15 AM 12.2 °F - 10.4 °F 92% 30.23 in 10.0 mi Calm Calm - N/A   Clear
4:35 AM 10.4 °F - 10.4 °F 100% 30.24 in 10.0 mi Calm Calm - N/A   Clear
4:55 AM 10.4 °F - 10.4 °F 100% 30.25 in 10.0 mi Calm Calm - N/A   Clear
5:15 AM 10.4 °F - 10.4 °F 100% 30.25 in 10.0 mi Calm Calm - N/A   Clear
5:35 AM 10.4 °F - 10.4 °F 100% 30.24 in 10.0 mi Calm Calm - N/A   Clear
5:55 AM 10.4 °F - 10.4 °F 100% 30.24 in 10.0 mi Calm Calm - N/A   Clear
6:15 AM 10.4 °F - 8.6 °F 92% 30.24 in 10.0 mi Calm Calm - N/A   Clear
6:35 AM 10.4 °F - 8.6 °F 92% 30.24 in 8.0 mi Calm Calm - N/A   Clear
8:45 AM 24.8 °F - 21.2 °F 86% 30.27 in 10.0 mi Calm Calm - N/A   Clear
9:45 AM 28.4 °F - 15.8 °F 59% 30.27 in 10.0 mi Calm Calm - N/A   Clear
10:45 AM 33.8 °F 30.8 °F 14.0 °F 44% 30.27 in 10.0 mi NNW 3.5 mph - N/A   Clear
11:50 AM 37.4 °F 30.8 °F 14.0 °F 38% 30.25 in 10.0 mi North 9.2 mph - N/A   Clear
1:45 PM 41.0 °F 35.8 °F 12.2 °F 31% 30.21 in 10.0 mi NE 8.1 mph - N/A   Clear
2:55 PM 42.8 °F 39.3 °F 12.2 °F 29% 30.21 in 10.0 mi NE 5.8 mph - N/A   Clear
4:45 PM 42.8 °F 37.5 °F 12.2 °F 29% 30.21 in 10.0 mi NNE 9.2 mph - N/A   Clear
6:15 PM 39.2 °F 33.6 °F 17.6 °F 42% 30.27 in 10.0 mi North 8.1 mph - N/A   Clear
6:35 PM 37.4 °F 32.8 °F 17.6 °F 45% 30.28 in 10.0 mi North 5.8 mph - N/A   Clear
6:55 PM 37.4 °F 32.8 °F 15.8 °F 41% 30.29 in 10.0 mi North 5.8 mph - N/A   Clear
7:15 PM 37.4 °F 33.8 °F 17.6 °F 45% 30.30 in 10.0 mi North 4.6 mph - N/A   Clear
7:35 PM 35.6 °F 31.7 °F 17.6 °F 48% 30.31 in 10.0 mi North 4.6 mph - N/A   Clear
7:55 PM 35.6 °F 31.7 °F 17.6 °F 48% 30.31 in 10.0 mi North 4.6 mph - N/A   Clear
8:15 PM 35.6 °F 30.7 °F 17.6 °F 48% 30.32 in 10.0 mi North 5.8 mph - N/A   Clear
8:35 PM 33.8 °F 27.7 °F 17.6 °F 52% 30.32 in 10.0 mi North 6.9 mph - N/A   Clear
8:55 PM 33.8 °F 27.7 °F 17.6 °F 52% 30.32 in 10.0 mi North 6.9 mph - N/A   Clear
9:15 PM 33.8 °F 27.7 °F 17.6 °F 52% 30.33 in 10.0 mi North 6.9 mph - N/A   Clear
9:35 PM 33.8 °F 27.7 °F 17.6 °F 52% 30.34 in 10.0 mi North 6.9 mph - N/A   Clear
9:55 PM 33.8 °F 28.6 °F 17.6 °F 52% 30.36 in 10.0 mi North 5.8 mph - N/A   Mostly Cloudy
10:15 PM 33.8 °F 27.7 °F 15.8 °F 48% 30.37 in 10.0 mi NNE 6.9 mph - N/A   Overcast
10:35 PM 35.6 °F 28.0 °F 14.0 °F 41% 30.38 in 10.0 mi NE 10.4 mph 16.1 mph N/A   Overcast
10:55 PM 33.8 °F 27.0 °F 14.0 °F 44% 30.39 in 10.0 mi NNE 8.1 mph - N/A   Mostly Cloudy
11:15 PM 33.8 °F 27.0 °F 14.0 °F 44% 30.39 in 10.0 mi NNE 8.1 mph - N/A   Mostly Cloudy
11:35 PM 33.8 °F 26.4 °F 14.0 °F 44% 30.40 in 10.0 mi NNE 9.2 mph - N/A   Overcast
11:55 PM 33.8 °F 26.4 °F 15.8 °F 48% 30.40 in 10.0 mi NE 9.2 mph - N/A   Overcast